GW3646 Weather Reports


time (UTC)temp
C
wind
direction
speed
KPH
gust
KPH
rain 1hr
cm
rain 24hr
cm
rain mn
cm
humidity
%
barometer
mb
20260510142513 11 76 3.2 8.0 0.20 0.46 0.46 86 1021.4
20260510142013 11 66 1.6 8.0 0.23 0.43 0.43 87 1021.5
20260510141526 11 78 3.2 8.0 0.28 0.43 0.43 88 1021.5
20260510141005 11 84 1.6 6.4 0.33 0.43 0.43 88 1021.2
20260510140503 11 84 0.0 4.8 0.38 0.43 0.43 87 1021.1
20260510140014 11 84 0.0 4.8 0.38 0.41 0.41 87 1021.1
20260510135506 11 84 0.0 3.2 0.41 0.41 0.41 87 1021.3
20260510135007 11 84 0.0 0.0 0.38 0.38 0.38 87 1021.5
20260510134520 11 84 0.0 0.0 0.36 0.36 0.36 86 1021.7
20260510134005 11 84 0.0 0.0 0.33 0.33 0.33 86 1021.6
20260510133506 11 84 0.0 0.0 0.30 0.30 0.30 85 1021.4
20260510133024 11 84 0.0 0.0 0.28 0.28 0.28 84 1021.2
20260510132508 12 84 0.0 1.6 0.25 0.25 0.25 83 1021.1
20260510132009 12 84 0.0 6.4 0.20 0.20 0.20 81 1021.0
20260510131525 12 84 0.0 6.4 0.15 0.15 0.15 79 1021.1
20260510131012 12 91 0.0 3.2 0.10 0.10 0.10 79 1021.1
20260510130510 13 91 0.0 3.2 0.05 0.05 0.05 76 1021.1
20260510130029 13 91 0.0 3.2 0.03 0.03 0.03 72 1020.9
20260510125510 13 91 0.0 3.2 0.00 0.00 0.00 70 1020.6
20260510125007 13 91 0.0 6.4 0.00 0.00 0.00 68 1020.4
20260510124518 14 91 0.0 6.4 0.00 0.00 0.00 67 1020.4
20260510124006 14 74 0.0 11.3 0.00 0.00 0.00 66 1020.1
20260510123506 14 44 0.0 12.9 0.00 0.00 0.00 63 1020.0
20260510123023 15 77 0.0 12.9 0.00 0.00 0.00 64 1019.9
20260510122508 15 88 1.6 12.9 0.00 0.00 0.00 64 1019.7
20260510122010 15 11 3.2 14.5 0.00 0.00 0.00 63 1019.4
20260510121527 15 82 1.6 16.1 0.00 0.00 0.00 63 1018.9
20260510121010 15 79 4.8 16.1 0.00 0.00 0.00 62 1018.7
20260510120508 15 80 1.6 11.3 0.00 0.00 0.00 63 1018.4
20260510120037 15 80 3.2 8.0 0.00 0.00 0.00 63 1018.1
20260510115513 15 9 3.2 16.1 0.00 0.00 0.00 63 1017.8
20260510115010 15 74 4.8 17.7 0.00 0.00 0.00 62 1017.7
20260510114527 15 66 6.4 17.7 0.00 0.00 0.00 62 1017.6
20260510114011 15 69 3.2 17.7 0.00 0.00 0.00 63 1017.5
20260510113506 15 54 6.4 17.7 0.00 0.00 0.00 63 1017.2
20260510113018 15 74 9.7 17.7 0.00 0.00 0.00 62 1017.0
20260510112511 15 76 4.8 16.1 0.00 0.00 0.00 63 1016.7
20260510112012 15 69 3.2 14.5 0.00 0.00 0.00 63 1016.7
20260510111526 15 59 4.8 14.5 0.00 0.00 0.00 64 1016.3
20260510111003 15 61 3.2 16.1 0.00 0.00 0.00 63 1016.2
20260510110505 15 61 4.8 16.1 0.00 0.00 0.00 63 1016.1
20260510110011 15 91 3.2 16.1 0.00 0.00 0.00 62 1015.9
20260510105504 15 88 6.4 17.7 0.00 0.00 0.00 62 1015.7
20260510105004 15 80 6.4 17.7 0.00 0.00 0.00 62 1015.7
20260510104512 16 64 8.0 14.5 0.00 0.00 0.00 62 1015.8
20260510104004 16 65 4.8 12.9 0.00 0.00 0.00 62 1015.9
20260510103504 16 67 4.8 16.1 0.00 0.00 0.00 62 1015.8
20260510103016 16 59 6.4 16.1 0.00 0.00 0.00 61 1015.7
20260510102504 16 47 4.8 11.3 0.00 0.00 0.00 61 1015.7
20260510102007 16 80 3.2 12.9 0.00 0.00 0.00 61 1015.6
20260510101522 16 68 6.4 16.1 0.00 0.00 0.00 61 1015.4
20260510101008 16 71 6.4 17.7 0.00 0.00 0.00 61 1015.3
20260510100503 16 81 6.4 22.5 0.00 0.00 0.00 61 1015.3
20260510100004 16 61 4.8 22.5 0.00 0.00 0.00 61 1015.2
20260510095503 16 70 4.8 12.9 0.00 0.00 0.00 62 1015.2
20260510095003 16 58 4.8 12.9 0.00 0.00 0.00 61 1015.1
20260510094519 16 69 4.8 14.5 0.00 0.00 0.00 62 1015.1
20260510094007 16 42 1.6 14.5 0.00 0.00 0.00 62 1015.0
20260510093504 16 90 4.8 14.5 0.00 0.00 0.00 62 1014.8
20260510093012 16 88 3.2 14.5 0.00 0.00 0.00 62 1014.8
20260510092507 16 66 3.2 14.5 0.00 0.00 0.00 62 1014.7
20260510092003 16 66 4.8 16.1 0.00 0.00 0.00 62 1014.5
20260510091522 16 68 4.8 16.1 0.00 0.00 0.00 62 1014.5
20260510091004 16 60 4.8 12.9 0.00 0.00 0.00 63 1014.5
20260510090507 16 62 4.8 12.9 0.00 0.00 0.00 63 1014.5
20260510090020 16 61 4.8 12.9 0.00 0.00 0.00 63 1014.4
20260510085506 16 62 4.8 16.1 0.00 0.00 0.00 63 1014.5
20260510085006 16 69 4.8 16.1 0.00 0.00 0.00 63 1014.4
20260510084506 16 78 3.2 14.5 0.00 0.00 0.00 63 1014.3
20260510084002 16 67 4.8 11.3 0.00 0.00 0.00 63 1014.4
20260510083506 16 38 3.2 12.9 0.00 0.00 0.00 64 1014.4
20260510083010 16 55 4.8 12.9 0.00 0.00 0.00 64 1014.5
20260510082504 16 57 4.8 11.3 0.00 0.00 0.00 65 1014.4
20260510082005 16 68 3.2 6.4 0.00 0.00 0.00 65 1014.4
20260510081514 16 64 1.6 6.4 0.00 0.00 0.00 66 1014.2
20260510081006 16 79 0.0 4.8 0.00 0.00 0.00 65 1014.2
20260510080505 16 79 0.0 6.4 0.00 0.00 0.00 65 1014.1
20260510080017 16 79 0.0 6.4 0.00 0.00 0.00 65 1013.9
20260510075509 16 75 0.0 3.2 0.00 0.00 0.00 65 1013.8
20260510075007 16 75 0.0 3.2 0.00 0.00 0.00 65 1013.8
20260510074526 16 75 0.0 0.0 0.00 0.00 0.00 65 1013.8
20260510074006 17 75 0.0 3.2 0.00 0.00 0.00 65 1013.9
20260510073507 17 75 0.0 3.2 0.00 0.00 0.00 64 1013.9
20260510073005 17 75 0.0 3.2 0.00 0.00 0.00 64 1013.9
20260510072503 17 75 0.0 3.2 0.00 0.00 0.00 63 1014.0
20260510072002 17 75 0.0 4.8 0.00 0.00 0.00 62 1013.9
20260510071512 17 75 0.0 4.8 0.00 0.00 0.00 62 1013.8
20260510071004 17 62 0.0 3.2 0.00 0.00 0.00 61 1013.7
20260510070503 17 62 0.0 3.2 0.00 0.00 0.00 61 1013.8
20260510070015 17 62 0.0 3.2 0.00 0.00 0.00 61 1013.7
20260510065506 18 62 0.0 4.8 0.00 0.00 0.00 60 1013.6
20260510065006 18 62 0.0 4.8 0.00 0.00 0.00 61 1013.6
20260510064520 18 63 0.0 4.8 0.00 0.00 0.00 60 1013.6
20260510064010 18 77 0.0 3.2 0.00 0.00 0.00 60 1013.6
20260510063507 17 59 0.0 3.2 0.00 0.00 0.00 61 1013.7
20260510063027 17 59 0.0 3.2 0.00 0.00 0.00 61 1013.7
20260510062507 17 61 0.0 0.0 0.00 0.00 0.00 61 1013.5
20260510062010 18 61 0.0 0.0 0.00 0.00 0.00 60 1013.3
20260510061513 18 61 0.0 0.0 0.00 0.00 0.00 59 1013.2
20260510061003 18 61 0.0 0.0 0.00 0.00 0.00 59 1013.1
20260510060503 18 61 0.0 0.0 0.00 0.00 0.00 58 1013.1
20260510060030 18 61 0.0 3.2 0.00 0.00 0.00 58 1012.9
20260510055507 18 61 0.0 3.2 0.00 0.00 0.00 58 1012.9
20260510055006 18 61 0.0 0.0 0.00 0.00 0.00 61 1012.9
20260510054518 18 61 0.0 0.0 0.00 0.00 0.00 60 1012.8
20260510054004 18 61 0.0 0.0 0.00 0.00 0.00 57 1012.5
20260510053507 18 61 0.0 0.0 0.00 0.00 0.00 59 1012.4
20260510053022 18 61 0.0 0.0 0.00 0.00 0.00 57 1012.3
20260510052507 18 61 0.0 4.8 0.00 0.00 0.00 59 1012.2
20260510052009 18 61 0.0 4.8 0.00 0.00 0.00 58 1012.1
20260510051526 17 61 0.0 4.8 0.00 0.00 0.00 61 1012.0
20260510051011 17 269 0.0 0.0 0.00 0.00 0.00 67 1011.9
20260510050513 17 269 0.0 0.0 0.00 0.00 0.00 62 1011.7
20260510050008 17 269 0.0 0.0 0.00 0.00 0.00 62 1011.7
20260510045504 17 269 0.0 0.0 0.00 0.00 0.00 62 1011.7
20260510045007 17 269 0.0 0.0 0.00 0.00 0.00 62 1011.7
20260510044517 17 269 0.0 0.0 0.00 0.00 0.00 64 1011.8
20260510044006 17 269 0.0 0.0 0.00 0.00 0.00 64 1011.8
20260510043507 18 269 0.0 0.0 0.00 0.00 0.00 67 1011.9
20260510043021 18 269 0.0 0.0 0.00 0.00 0.00 68 1011.9
20260510042507 18 269 0.0 0.0 0.00 0.00 0.00 69 1012.1
20260510042006 18 269 0.0 0.0 0.00 0.00 0.00 69 1012.2
20260510041529 18 269 0.0 0.0 0.00 0.00 0.00 61 1012.3
20260510041007 18 269 0.0 0.0 0.00 0.00 0.00 59 1012.2
20260510040507 18 269 0.0 0.0 0.00 0.00 0.00 62 1012.1
20260510040026 18 269 0.0 0.0 0.00 0.00 0.00 67 1012.1
20260510035510 19 269 0.0 0.0 0.00 0.00 0.00 63 1012.1
20260510035009 19 269 0.0 0.0 0.00 0.00 0.00 61 1012.0
20260510034510 19 269 0.0 0.0 0.00 0.00 0.00 63 1012.0
20260510034004 19 269 0.0 0.0 0.00 0.00 0.00 58 1011.8
20260510033504 20 269 0.0 0.0 0.00 0.00 0.00 59 1011.8
20260510033004 20 269 0.0 0.0 0.00 0.00 0.00 60 1011.8
20260510032502 20 269 0.0 0.0 0.00 0.00 0.00 57 1011.7
20260510032002 20 269 0.0 0.0 0.00 0.00 0.00 56 1011.7
20260510031504 21 269 0.0 0.0 0.00 0.00 0.00 56 1011.6
20260510031003 21 269 0.0 0.0 0.00 0.00 0.00 55 1011.6
20260510030502 22 269 0.0 6.4 0.00 0.00 0.00 52 1011.8
20260510030006 22 269 0.0 6.4 0.00 0.00 0.00 46 1011.8
20260510025503 22 248 1.6 6.4 0.00 0.00 0.00 44 1011.3
20260510025005 22 155 0.0 4.8 0.00 0.00 0.00 43 1011.4
20260510024512 23 84 0.0 0.0 0.00 0.00 0.00 42 1012.1
20260510024004 23 84 0.0 0.0 0.00 0.00 0.00 41 1012.0
20260510023503 23 84 0.0 0.0 0.00 0.00 0.00 40 1011.9
20260510023030 23 84 0.0 3.2 0.00 0.00 0.00 41 1011.8
20260510022506 23 84 0.0 8.0 0.00 0.00 0.00 40 1011.9
20260510022008 23 84 0.0 8.0 0.00 0.00 0.00 40 1011.7
20260510021520 24 207 0.0 8.0 0.00 0.00 0.00 39 1011.8
20260510021003 24 194 0.0 11.3 0.00 0.00 0.00 38 1011.7
20260510020503 24 90 1.6 11.3 0.00 0.00 0.00 37 1011.7
20260510020005 24 254 0.0 11.3 0.00 0.00 0.00 37 1011.8
20260510015503 24 219 1.6 9.7 0.00 0.00 0.00 38 1011.8
20260510015002 24 252 0.0 6.4 0.00 0.00 0.00 37 1011.5
20260510014506 24 246 0.0 4.8 0.00 0.00 0.00 37 1011.1
20260510014003 23 268 0.0 4.8 0.00 0.00 0.00 36 1011.1
20260510013509 23 268 0.0 4.8 0.00 0.00 0.00 36 1011.0
20260510013013 23 242 0.0 3.2 0.00 0.00 0.00 37 1010.7
20260510012503 24 121 0.0 1.6 0.00 0.00 0.00 35 1010.4
20260510012004 24 121 0.0 3.2 0.00 0.00 0.00 35 1010.0
20260510011522 24 121 0.0 4.8 0.00 0.00 0.00 35 1009.7
20260510011012 24 263 0.0 4.8 0.00 0.00 0.00 34 1009.5
20260510010506 24 263 0.0 4.8 0.00 0.00 0.00 35 1009.1
20260510010025 25 163 0.0 4.8 0.00 0.00 0.00 34 1009.1
20260510005503 25 245 0.0 4.8 0.00 0.00 0.00 34 1008.9
20260510005004 25 245 0.0 3.2 0.00 0.00 0.00 34 1008.8
20260510004505 25 245 0.0 6.4 0.00 0.00 0.00 33 1008.6
20260510004003 25 186 1.6 6.4 0.00 0.00 0.00 33 1008.5
20260510003504 26 246 0.0 4.8 0.00 0.00 0.00 32 1008.3
20260510003006 26 273 0.0 4.8 0.00 0.00 0.00 30 1008.2
20260510002504 26 167 0.0 6.4 0.00 0.00 0.00 30 1008.1
20260510002003 26 281 0.0 9.7 0.00 0.00 0.00 29 1008.0
20260510001516 27 290 1.6 9.7 0.00 0.00 0.00 28 1008.0
20260510001009 27 276 0.0 9.7 0.00 0.00 0.00 29 1007.9
20260510000505 27 293 1.6 6.4 0.00 0.00 0.00 27 1007.9
20260510000017 28 268 0.0 6.4 0.00 0.00 0.00 26 1007.9
20260509235504 28 280 1.6 6.4 0.00 0.00 0.00 25 1007.9
20260509235007 28 205 0.0 4.8 0.00 0.00 0.00 26 1008.0
20260509234524 28 265 0.0 9.7 0.00 0.00 0.00 23 1008.1
20260509234004 29 266 3.2 9.7 0.00 0.00 0.00 24 1008.2
20260509233505 29 297 1.6 12.9 0.00 0.00 0.00 26 1008.2
20260509233005 29 275 1.6 12.9 0.00 0.00 0.00 24 1008.2
20260509232504 29 209 1.6 11.3 0.00 0.00 0.00 24 1008.3
20260509232004 30 265 3.2 6.4 0.00 0.00 0.00 21 1008.3
20260509231512 30 345 0.0 14.5 0.00 0.00 0.00 23 1008.3
20260509231004 29 217 3.2 14.5 0.00 0.00 0.00 21 1008.3
20260509230504 29 139 1.6 12.9 0.00 0.00 0.00 21 1008.2
20260509230014 29 222 1.6 12.9 0.00 0.00 0.00 24 1008.2
20260509225505 30 184 1.6 9.7 0.00 0.00 0.00 23 1008.2
20260509225004 30 299 1.6 9.7 0.00 0.00 0.00 22 1008.1
20260509224520 30 297 1.6 9.7 0.00 0.00 0.00 20 1008.1
20260509224008 30 250 1.6 9.7 0.00 0.00 0.00 21 1008.2
20260509223511 30 246 1.6 14.5 0.00 0.00 0.00 21 1008.2
20260509223026 30 319 0.0 14.5 0.00 0.00 0.00 24 1008.2
20260509222503 30 271 1.6 14.5 0.00 0.00 0.00 21 1008.0
20260509222005 30 250 3.2 11.3 0.00 0.00 0.00 22 1008.0
20260509221507 31 253 1.6 14.5 0.00 0.00 0.00 22 1008.0
20260509221005 30 184 3.2 14.5 0.00 0.00 0.00 21 1007.9
20260509220504 30 261 1.6 12.9 0.00 0.00 0.00 21 1007.9
20260509220013 30 269 3.2 12.9 0.00 0.00 0.00 22 1007.9
20260509215505 30 161 1.6 6.4 0.00 0.00 0.00 20 1007.9
20260509215005 31 257 3.2 9.7 0.00 0.00 0.00 20 1007.9
20260509214518 31 223 0.0 9.7 0.00 0.00 0.00 20 1008.0
20260509214007 31 38 1.6 11.3 0.00 0.00 0.00 19 1008.0
20260509213508 31 223 1.6 11.3 0.00 0.00 0.00 21 1008.0
20260509213020 30 254 1.6 11.3 0.00 0.00 0.00 23 1008.1
20260509212507 30 77 0.0 8.0 0.00 0.00 0.00 21 1008.1
20260509212011 30 266 1.6 11.3 0.00 0.00 0.00 21 1008.3
20260509211548 30 44 0.0 11.3 0.00 0.00 0.00 21 1008.3
20260509211004 30 265 3.2 11.3 0.00 0.00 0.00 21 1008.3
20260509210504 31 276 3.2 11.3 0.00 0.00 0.00 20 1008.4
20260509210008 31 259 3.2 16.1 0.00 0.00 0.00 22 1008.5
20260509205504 30 277 3.2 16.1 0.00 0.00 0.00 22 1008.6
20260509205007 30 252 1.6 14.5 0.00 0.00 0.00 22 1008.6
20260509204513 30 175 3.2 11.3 0.00 0.00 0.00 23 1008.7
20260509204008 30 211 1.6 11.3 0.00 0.00 0.00 21 1008.7
20260509203506 31 242 3.2 11.3 0.00 0.00 0.00 20 1008.8
20260509203034 31 205 1.6 12.9 0.00 0.00 0.00 20 1008.8
20260509202510 31 248 3.2 12.9 0.00 0.00 0.00 22 1008.9
20260509202007 31 239 3.2 12.9 0.00 0.00 0.00 21 1009.0
20260509201524 31 267 3.2 12.9 0.00 0.00 0.00 23 1009.0
20260509201012 31 344 3.2 12.9 0.00 0.00 0.00 22 1009.1
20260509200509 31 130 1.6 12.9 0.00 0.00 0.00 21 1009.2
20260509200026 30 288 3.2 12.9 0.00 0.00 0.00 21 1009.3
20260509195504 30 277 1.6 12.9 0.00 0.00 0.00 20 1009.2
20260509195004 31 261 3.2 8.0 0.00 0.00 0.00 23 1009.4
20260509194511 31 15 1.6 8.0 0.00 0.00 0.00 21 1009.4
20260509194006 31 5 3.2 9.7 0.00 0.00 0.00 21 1009.5
20260509193504 30 327 0.0 12.9 0.00 0.00 0.00 22 1009.5
20260509193016 30 242 3.2 16.1 0.00 0.00 0.00 23 1009.5
20260509192504 30 271 3.2 16.1 0.00 0.00 0.00 22 1009.5
20260509192007 30 289 1.6 11.3 0.00 0.00 0.00 22 1009.6
20260509191521 31 267 1.6 11.3 0.00 0.00 0.00 20 1009.6
20260509191011 30 299 0.0 11.3 0.00 0.00 0.00 21 1009.7
20260509190509 30 193 1.6 14.5 0.00 0.00 0.00 25 1009.7
20260509190023 30 180 1.6 14.5 0.00 0.00 0.00 25 1009.8
20260509185509 30 249 1.6 8.0 0.00 0.00 0.00 22 1009.9
20260509185013 30 312 1.6 9.7 0.00 0.00 0.00 24 1009.9
20260509184527 30 205 1.6 9.7 0.00 0.00 0.00 22 1010.0
20260509184006 29 270 3.2 8.0 0.00 0.00 0.00 22 1010.1
20260509183503 29 352 1.6 8.0 0.00 0.00 0.00 21 1010.0
20260509183021 29 225 3.2 12.9 0.00 0.00 0.00 21 1010.2
20260509182505 29 30 4.8 12.9 0.00 0.00 0.00 22 1010.2
20260509182008 30 310 1.6 12.9 0.00 0.00 0.00 23 1010.2
20260509181518 30 79 1.6 12.9 0.00 0.00 0.00 23 1010.3
20260509181012 29 327 1.6 12.9 0.00 0.00 0.00 23 1010.5
20260509180507 29 17 1.6 16.1 0.00 0.00 0.00 22 1010.6
20260509180024 29 251 3.2 16.1 0.00 0.00 0.00 23 1010.6
20260509175503 29 232 3.2 12.9 0.00 0.00 0.00 24 1010.7
20260509175003 28 74 1.6 12.9 0.00 0.00 0.00 24 1010.7
20260509174508 28 239 3.2 16.1 0.00 0.00 0.00 27 1010.8
20260509174004 28 239 3.2 16.1 0.00 0.00 0.00 25 1010.9
20260509173503 28 339 3.2 12.9 0.00 0.00 0.00 25 1011.0
20260509173012 28 268 3.2 16.1 0.00 0.00 0.00 25 1011.0
20260509172503 28 281 1.6 16.1 0.00 0.00 0.00 26 1011.0
20260509172005 28 79 3.2 14.5 0.00 0.00 0.00 28 1011.0
20260509171516 28 236 3.2 12.9 0.00 0.00 0.00 27 1011.2
20260509171007 27 156 3.2 22.5 0.00 0.00 0.00 27 1011.2
20260509170507 27 252 4.8 22.5 0.00 0.00 0.00 27 1011.4
20260509170022 27 40 1.6 12.9 0.00 0.00 0.00 26 1011.4
20260509165510 27 309 3.2 11.3 0.00 0.00 0.00 27 1011.4
20260509165010 27 121 1.6 11.3 0.00 0.00 0.00 26 1011.4
20260509164523 27 152 3.2 11.3 0.00 0.00 0.00 26 1011.4
20260509164007 27 192 0.0 8.0 0.00 0.00 0.00 29 1011.4
20260509163504 27 242 1.6 12.9 0.00 0.00 0.00 28 1011.4
20260509163008 27 163 3.2 12.9 0.00 0.00 0.00 29 1011.4
20260509162505 27 210 3.2 11.3 0.00 0.00 0.00 31 1011.5
20260509162003 27 240 3.2 11.3 0.00 0.00 0.00 29 1011.5
20260509161516 26 149 0.0 8.0 0.00 0.00 0.00 35 1011.5
20260509161006 26 284 1.6 14.5 0.00 0.00 0.00 33 1011.5
20260509160507 26 139 1.6 14.5 0.00 0.00 0.00 32 1011.4
20260509160016 26 259 1.6 16.1 0.00 0.00 0.00 37 1011.5
20260509155508 26 246 3.2 16.1 0.00 0.00 0.00 34 1011.4
20260509155008 26 258 4.8 12.9 0.00 0.00 0.00 34 1011.3
20260509154522 25 254 1.6 6.4 0.00 0.00 0.00 37 1011.4
20260509154009 25 215 1.6 11.3 0.00 0.00 0.00 38 1011.5
20260509153509 25 281 3.2 11.3 0.00 0.00 0.00 39 1011.5
20260509153026 24 249 1.6 8.0 0.00 0.00 0.00 41 1011.4
20260509152504 24 228 0.0 4.8 0.00 0.00 0.00 46 1011.4
20260509152005 23 221 0.0 4.8 0.00 0.00 0.00 46 1011.4
20260509151508 23 247 0.0 6.4 0.00 0.00 0.00 50 1011.4
20260509151004 22 255 0.0 6.4 0.00 0.00 0.00 51 1011.5
20260509150504 22 207 0.0 8.0 0.00 0.00 0.00 53 1011.5
20260509150015 21 210 1.6 8.0 0.00 0.00 0.00 54 1011.4
20260509145509 21 227 1.6 6.4 0.00 0.00 0.00 58 1011.4
20260509145009 21 232 1.6 6.4 0.00 0.00 0.00 57 1011.3
20260509144518 20 238 0.0 8.0 0.00 0.00 0.00 63 1011.3
20260509144006 20 241 3.2 8.0 0.00 0.00 0.00 61 1011.3
20260509143507 19 268 1.6 8.0 0.00 0.00 0.00 63 1011.4
20260509143028 19 244 1.6 8.0 0.00 0.00 0.00 63 1011.4